Regional Weather Roundup
Issued by NWS

Home | Current Version | Previous Version | Graphics & Text | Print | Product List | Glossary On
Versions: 1 2 3 4 5 6 7 8 9 10 11 12 13 14 15 16 17 18 19 20 21 22 23 24 25 26 27 28 29 30 31 32 33 34 35 36 37 38 39 40 41 42 43 44 45 46 47 48 49 50
354
ASUS45 KCYS 221610
RWRWY

WYOMING REGIONAL WEATHER ROUNDUP
NATIONAL WEATHER SERVICE CHEYENNE WY
900 AM MST WED NOV 22 2017

NOTE:  "FAIR" INDICATES FEW OR NO CLOUDS BELOW 12,000 FEET
WITH NO SIGNIFICANT WEATHER AND/OR OBSTRUCTIONS TO VISIBILITY.

WYZ001-221700-
YELLOWSTONE NATIONAL PARK

CITY           SKY/WX    TMP DP  RH WIND       PRES   REMARKS
LK YELLOWSTONE   N/A     38  37  97 VRB3      30.39S
W YELLOWSTONE  NOT AVBL

$$
WYZ002>013-054>058-071-098>099-221700-
NORTHERN WYOMING

CITY           SKY/WX    TMP DP  RH WIND       PRES   REMARKS
JACKSON        CLOUDY    46  41  82 SW6       30.38R
CODY           FAIR      56  38  50 W12G23    30.22R
GREYBULL       FAIR      36  31  82 SE6       30.22R WCI  31
WORLAND        FAIR      34  31  88 CALM      30.22R
SHERIDAN       FAIR      52  41  66 N5        30.08R
BUFFALO        FAIR      59  31  34 S5        30.12R
GILLETTE       FAIR      56  34  43 SW15      30.09R
HULETT         FAIR      52  32  46 SW10      30.08S
NEWCASTLE      FAIR      39  28  65 CALM      30.14S

$$
WYZ014>020-022>026-101>103-221700-
CENTRAL WYOMING

CITY           SKY/WX    TMP DP  RH WIND       PRES   REMARKS
BIG PINEY      CLOUDY    35  35 100 NE6       30.43R WCI  30
PINEDALE       CLOUDY    34  34 100 CALM      30.43S FOG
DUBOIS         CLOUDY    43  36  75 NW14      30.33R
LANDER         FAIR      44  33  65 S3        30.26R
RIVERTON       FAIR      47  34  60 SW9       30.27R
CASPER         FAIR      51  36  56 SW22G30   30.23R
DOUGLAS        FAIR      52  38  58 NW16      30.18R

$$
WYZ021-027>030-104>119-221700-
SOUTHERN WYOMING

CITY           SKY/WX    TMP DP  RH WIND       PRES   REMARKS
EVANSTON       FAIR      44  38  79 SW15      30.48R
KEMMERER       FAIR      41  36  81 W5        30.47R
FORT BRIDGER   FAIR      46  40  79 SW6       30.50R
ROCK SPRINGS   FAIR      43  36  76 W22       30.44R
DIXON          CLOUDY    41  35  80 N3        30.48R
RAWLINS        LGT RAIN  47  38  71 W26G35    30.36R
SARATOGA       PTSUNNY   45  36  70 W9        30.42S
LARAMIE        FAIR      47  38  71 W17       30.34R
CHEYENNE       FAIR      53  37  54 W13       30.26R
TORRINGTON     FAIR      47  37  68 NW6       30.14S
PINE BLUFFS    FAIR      41  36  81 MISG      30.22S

$$




USA.gov is the U.S. government's official web portal to all federal, state and local government web resources and services.